Location: Aranbee
(34.0885°N, 118.2342°W)
Time: 00:26:19
(UTC+00:00)

A-11 Canister half - Pass Details

Date: 02 August 2021
Orbit: 1515 x 1685 km, 47.2° (Epoch: 22 September)

Event Time Altitude Azimuth Distance (km) Brightness Sun altitude
Rises 04:50:45 0° 299° (WNW) 4,880 13.1 -21.5°
Reaches altitude 10° 04:54:06 10° 306° (NW) 3,911 12.3 -22.0°
Maximum altitude 05:03:42 46° 18° (NNE) 2,147 9.9 -23.5°
Enters shadow 05:11:27 17° 84° (E) 3,422 10.5 -24.6°
